Regional Weather Roundup
Issued by NWS

Home | Current Version | Previous Version | Text Only | Print | Product List | Glossary Off
Versions: 1 2 3 4 5 6 7 8 9 10 11 12 13 14 15 16 17 18 19 20 21 22 23 24 25 26 27 28 29 30 31 32 33 34 35 36 37 38 39 40 41 42 43 44 45 46 47 48 49

000
ASUS45 KCYS 290810
RWRWY

WYOMING REGIONAL WEATHER ROUNDUP
NATIONAL WEATHER SERVICE CHEYENNE WY
200 AM MDT SAT AUG 29 2015

NOTE:  "FAIR" INDICATES FEW OR NO CLOUDS BELOW 12,000 FEET
WITH NO SIGNIFICANT WEATHER AND/OR OBSTRUCTIONS TO VISIBILITY.

WYZ001-290900-
YELLOWSTONE NATIONAL PARK

CITY           SKY/WX    TMP DP  RH WIND       PRES   REMARKS
LK YELLOWSTONE   N/A     42  36  79 NW3       30.36F
W YELLOWSTONE  NOT AVBL

$$
WYZ002>013-054>058-071-098>099-290900-
NORTHERN WYOMING

CITY           SKY/WX    TMP DP  RH WIND       PRES   REMARKS
JACKSON        FAIR      46  45  93 N5        30.26F
CODY           FAIR      66  37  34 W8        30.12S
GREYBULL       FAIR      61  43  51 E5        30.05F
WORLAND        FAIR      60  42  51 CALM      30.07F
SHERIDAN       FAIR      54  46  74 CALM      30.06F
BUFFALO        FAIR      70  37  29 SW6       30.13F
GILLETTE       FAIR      63  43  48 S9        30.09F
HULETT         FAIR      61  46  59 S7        30.12F
NEWCASTLE      FAIR      59  43  55 SE7       30.14F

$$
WYZ014>020-022>026-101>103-290900-
CENTRAL WYOMING

CITY           SKY/WX    TMP DP  RH WIND       PRES   REMARKS
BIG PINEY      FAIR      43  32  65 NW3       30.32F
PINEDALE       FAIR      43  37  81 W6        30.34S
DUBOIS         FAIR      50  34  53 NW10      30.33S
LANDER         FAIR      64  34  32 W7        30.18F
RIVERTON       FAIR      61  41  47 W13       30.19S
CASPER         FAIR      59  36  42 W10       30.20S
DOUGLAS        FAIR      58  40  51 CALM      30.20S

$$
WYZ021-027>030-104>119-290900-
SOUTHERN WYOMING

CITY           SKY/WX    TMP DP  RH WIND       PRES   REMARKS
EVANSTON       FAIR      61  37  41 SE3       30.31S
KEMMERER       FAIR      54  32  43 NW10      30.33S
FORT BRIDGER   SUNNY     68  32  26 CALM      30.33S
ROCK SPRINGS   FAIR      60  27  28 SE8       30.30S
DIXON          FAIR      54  37  51 E3        30.35S
RAWLINS        FAIR      52  40  63 CALM      30.33S
SARATOGA       FAIR      50  43  76 CALM      30.36S
LARAMIE        FAIR      51  39  63 S9        30.38S
CHEYENNE       FAIR      54  45  71 W7        30.32F
TORRINGTON     FAIR      57  46  66 E7        30.17F
PINE BLUFFS    FAIR      48  41  76 CALM      30.27S

$$


USA.gov is the U.S. government's official web portal to all federal, state and local government web resources and services.